Location: Archamps
(46.1365°N, 6.1329°E)
Time: 09:45:15
(UTC+00:00)

CZ-6A DEB - Pass Details

Date: 26 February 2024
Orbit: 823 x 884 km, 98.8° (Epoch: 12 April)

Event Time Altitude Azimuth Distance (km) Brightness Sun altitude
Rises 05:50:04 0° 15° (NNE) 3,404 ? -6.1°
Reaches altitude 10° 05:52:28 10° 18° (NNE) 2,457 ? -5.7°
Maximum altitude 05:57:54 75° 103° (ESE) 862 ? -4.8°
Drops below altitude 10° 06:03:15 10° 189° (S) 2,418 ? -3.9°
Sets 06:05:35 0° 191° (SSW) 3,345 ? -3.5°
